Location: Unspecified
(35.7250°N, 0.0000°E)
Time: 01:29:03
(UTC+00:00)

Vanguard 1 Rocket - Pass Details

Date: 18 June 2019
Orbit: 651 x 4225 km, 34.3° (Epoch: 21 July)

Event Time Altitude Azimuth Distance (km) Brightness Sun altitude
Rises 14:50:21 0° 206° (SSW) 8,313 12.6 51.5°
Reaches altitude 10° 14:58:04 10° 196° (SSW) 6,946 12.2 50.0°
Maximum altitude 15:13:57 27° 149° (SSE) 4,433 11.0 46.8°
Drops below altitude 10° 15:24:18 10° 98° (E) 4,506 10.6 44.7°
Sets 15:27:50 0° 86° (E) 5,049 10.8 43.9°
